Location: Elstree
(51.6403°N, 0.2969°W)
Time: 03:08:58
(UTC+00:00)

Cosmos 2221 Rocket - Visible Passes

Search period start: 15 June 2021 00:00
Search period end: 25 June 2021 00:00
Orbit: 619 x 649 km, 82.5° (Epoch: 14 June)

Date Brightness Start Highest point End Pass type
(mag) Time Alt. Az. Time Alt. Az. Time Alt. Az.
17 Jun 6.4 21:20:10 10° WSW 21:23:26 20° WNW 21:26:42 10° NNW visible
18 Jun 6.9 21:44:25 10° WNW 21:45:57 12° WNW 21:47:31 10° NW visible
21 Jun 6.8 21:11:43 10° W 21:13:57 14° WNW 21:16:12 10° NNW visible
